Location: Callao
(39.8979°N, 113.7141°W)
Time: 17:23:37
(UTC+00:00)

AO-91 - Pass Details

Date: 15 May 2021
Orbit: 453 x 808 km, 97.7° (Epoch: 19 June)

Event Time Altitude Azimuth Distance (km) Brightness Sun altitude
Rises 08:26:38 0° 347° (NNW) 2,759 ? -29.7°
Reaches altitude 10° 08:29:57 10° 317° (NW) 1,941 ? -29.6°
Enters shadow 08:30:50 12° 305° (NW) 1,857 ? -29.5°
